(253083) = 2002 TH212

Discovered at Haleakala on 2002-10-07 by NEAT.

Orbit

Orbit type: Main Belt

Note: WebGL enabled browser required.

epoch2024-03-31.0
epoch JD2460400.5
perihelion date2023-07-24.16605
perihelion JD2460149.66605
argument of perihelion (°)18.96415
ascending node (°)57.60506
inclination (°)14.73429
eccentricity0.1413443
perihelion distance (AU)2.1751230
Tisserand w.r.t. Jupiter3.4
ΔV w.r.t. Earth (km/sec)10.3
semimajor axis (AU)2.5331724
mean anomaly (°)61.31872
mean daily motion (°/day)0.24445940
aphelion distance (AU)2.891
period (years)4.03
P-vector [x]0.24129405
P-vector [y]0.85425944
P-vector [z]0.46045411
Q-vector [x]-0.94639166
Q-vector [y]0.10213924
Q-vector [z]0.30644805
absolute magnitude15.79
phase slope0.15
uncertainty0
referenceMPEC 2024-E179
observations used925
oppositions14
arc length (days)8774
first opposition used2000
last opposition used2024
residual rms (arc-secs)0.73
perturbers coarse indicatorM-v
perturbers precise indicator003Ek
first observation date used2000-03-04.0
last observation date used2024-03-12.0
computer nameMPCLINUX
JD of orbit computation2456966.855405
perihelion JD uncertainty (days)2.4435E-04
argument of perihelion uncertainty (°)7.4871E-05
ascending node uncertainty (°)5.4192E-05
inclination uncertainty (°)6.4074E-06
eccentricity uncertainty 4.1308E-08
perihelion distance uncertainty (AU)1.0840E-07
Minimum Orbit Intersection Distances (in AU)
for orbit epoch: 2460400.5, reference: E2024-F93
Mercury1.86772
Venus1.4576
Earth1.19436
Mars0.64647
Jupiter2.43265
Saturn6.89326
Uranus15.9024
Neptune27.5173

Observations

945 total observations over interval: 2000 03 04.32489 – 2024 03 12.253267
These data are available for download (format description).

Date (UT) J2000 RA J2000 Dec Magn Location Ref
2000 03 04.32489 11 49 03.05 +26 32 58.5   704 – Lincoln Laboratory ETS, New Mexico MPS 407059
2000 03 04.33836 11 49 02.15 +26 33 03.1   704 – Lincoln Laboratory ETS, New Mexico MPS 407059
2000 03 04.35208 11 49 01.26 +26 33 06.8   704 – Lincoln Laboratory ETS, New Mexico MPS 407059
2000 03 04.36578 11 49 00.37 +26 33 10.9   704 – Lincoln Laboratory ETS, New Mexico MPS 407059
2000 03 04.37987 11 48 59.42 +26 33 14.4   704 – Lincoln Laboratory ETS, New Mexico MPS 407059
2000 03 28.12893 11 24 50.85 +27 03 34.2   704 – Lincoln Laboratory ETS, New Mexico MPS 407059
2000 03 28.15796 11 24 49.32 +27 03 30.0   704 – Lincoln Laboratory ETS, New Mexico MPS 407059
2000 03 28.18687 11 24 47.69 +27 03 27.5   704 – Lincoln Laboratory ETS, New Mexico MPS 407059
2002 10 07.30976 00 33 35.04 -17 49 37.4 20.3   608 – Haleakala-AMOS MPS 64173
2002 10 07.32049 00 33 34.34 -17 49 37.3 20.1   608 – Haleakala-AMOS MPS 64173
2002 10 07.33087 00 33 33.67 -17 49 37.6 20.8   608 – Haleakala-AMOS MPS 64173
2002 10 08.20633 00 32 39.18 -17 49 24.3 18.9   644 – Palomar Mountain/NEAT MPS 64173
2002 10 08.22771 00 32 37.82 -17 49 23.8 19.0   644 – Palomar Mountain/NEAT MPS 64173
2002 10 08.24877 00 32 36.47 -17 49 23.4 18.9   644 – Palomar Mountain/NEAT MPS 64173
2006 08 19.46721 00 52 47.90 -17 10 56.5 19.6 R 644 – Palomar Mountain/NEAT MPS 213685
2006 08 19.47833 00 52 47.73 -17 11 00.4 19.4 R 644 – Palomar Mountain/NEAT MPS 213685
2006 08 19.49069 00 52 47.56 -17 11 04.8 19.5 R 644 – Palomar Mountain/NEAT MPS 213685
2006 09 17.324876 00 34 54.792 -19 52 35.31 19.26 V 645 – Apache Point-Sloan Digital Sky Survey MPS 390432
2006 09 17.328348 00 34 54.586 -19 52 36.18 20.07   645 – Apache Point-Sloan Digital Sky Survey MPS 390432
2006 09 26.31515 00 25 52.93 -20 21 29.1 18.9 V 703 – Catalina Sky Survey MPS 213685
2006 09 26.32253 00 25 52.46 -20 21 29.8 19.1 V 703 – Catalina Sky Survey MPS 213685
2006 09 26.32997 00 25 51.99 -20 21 30.3 19.2 V 703 – Catalina Sky Survey MPS 213685
2006 09 26.33734 00 25 51.49 -20 21 31.3 18.9 V 703 – Catalina Sky Survey MPS 213685
2006 10 12.52537 00 09 28.47 -20 18 55.2 19.1 V E12 – Siding Spring Survey MPS 213685
2006 10 12.53427 00 09 27.97 -20 18 53.0 19.1 V E12 – Siding Spring Survey MPS 213685
2006 10 12.54308 00 09 27.39 -20 18 52.2 19.2 V E12 – Siding Spring Survey MPS 213685
2006 10 12.55170 00 09 26.92 -20 18 51.6 19.0 V E12 – Siding Spring Survey MPS 213685
2006 10 22.17644 00 01 25.29 -19 41 09.8 19.3 R 644 – Palomar Mountain/NEAT MPS 213685
2006 10 22.19818 00 01 24.28 -19 41 02.8 18.9 R 644 – Palomar Mountain/NEAT MPS 213685
2006 10 22.21866 00 01 23.40 -19 40 56.2 18.7 R 644 – Palomar Mountain/NEAT MPS 213685
2008 01 12.40943 11 40 13.58 +25 11 04.7 19.8 V 703 – Catalina Sky Survey MPS 239351
2008 01 12.41539 11 40 13.72 +25 11 07.8 19.6 V 703 – Catalina Sky Survey MPS 239351
2008 01 12.42138 11 40 13.72 +25 11 10.5 20.2 V 703 – Catalina Sky Survey MPS 239351
2008 01 12.42734 11 40 13.87 +25 11 13.9 19.2 V 703 – Catalina Sky Survey MPS 239351
2008 02 03.29527 11 37 13.11 +28 07 14.8 19.2 V 703 – Catalina Sky Survey MPS 236171
2008 02 03.30251 11 37 12.79 +28 07 17.5 19.3 V 703 – Catalina Sky Survey MPS 236171
2008 02 03.30975 11 37 12.57 +28 07 22.5 19.1 V 703 – Catalina Sky Survey MPS 236171
2008 02 03.31691 11 37 12.28 +28 07 26.1 19.2 V 703 – Catalina Sky Survey MPS 236171
2008 02 08.30639 11 34 14.77 +28 49 47.6 19.0 V 703 – Catalina Sky Survey MPS 236171
2008 02 08.31311 11 34 14.30 +28 49 50.3 19.2 V 703 – Catalina Sky Survey MPS 236171
2008 02 08.31982 11 34 14.05 +28 49 52.9 19.2 V 703 – Catalina Sky Survey MPS 236171
2008 02 08.32654 11 34 13.76 +28 49 56.7 19.0 V 703 – Catalina Sky Survey MPS 236171
2008 02 09.97552 11 33 04.83 +29 03 32.6 18.3 R 106 – Crni Vrh MPS 237434
2008 02 09.98451 11 33 04.40 +29 03 36.7 18.2 R 106 – Crni Vrh MPS 237434
2008 02 09.99350 11 33 04.00 +29 03 41.3 18.4 R 106 – Crni Vrh MPS 237434
2008 02 10.00248 11 33 03.59 +29 03 45.6 18.5 R 106 – Crni Vrh MPS 237434
2008 02 12.35239 11 31 17.21 +29 22 40.7 19.1   704 – Lincoln Laboratory ETS, New Mexico MPS 237434
2008 02 12.36479 11 31 16.60 +29 22 46.5 19.2   704 – Lincoln Laboratory ETS, New Mexico MPS 237434
2008 02 12.37727 11 31 15.95 +29 22 53.1 19.2   704 – Lincoln Laboratory ETS, New Mexico MPS 237434
2008 02 12.38928 11 31 15.28 +29 22 59.4 19.2   704 – Lincoln Laboratory ETS, New Mexico MPS 237434
2008 02 12.40139 11 31 14.80 +29 23 04.2 19.5   704 – Lincoln Laboratory ETS, New Mexico MPS 237434
2008 02 18.21966 11 26 14.67 +30 06 16.7 19.4 V 703 – Catalina Sky Survey MPS 239351
2008 02 18.22521 11 26 14.38 +30 06 18.1 19.2 V 703 – Catalina Sky Survey MPS 239351
2008 02 18.23072 11 26 14.06 +30 06 19.8 19.0 V 703 – Catalina Sky Survey MPS 239351
2008 02 18.23623 11 26 13.77 +30 06 23.7 19.0 V 703 – Catalina Sky Survey MPS 239351
2008 03 01.27578 11 13 57.36 +31 12 12.0 19.9 r 699 – Lowell Observatory-LONEOS MPS 240656
2008 03 01.30141 11 13 55.67 +31 12 18.2 19.1 r 699 – Lowell Observatory-LONEOS MPS 240656
2008 03 01.32692 11 13 53.96 +31 12 23.9 19.1 r 699 – Lowell Observatory-LONEOS MPS 240656
2008 03 01.35251 11 13 52.19 +31 12 30.5 19.3 r 699 – Lowell Observatory-LONEOS MPS 240656
2008 03 07.43473 11 07 17.58 +31 29 48.7 18.8 V 703 – Catalina Sky Survey MPS 242027
2008 03 07.44492 11 07 16.86 +31 29 48.7 18.6 V 703 – Catalina Sky Survey MPS 242027
2008 03 07.45147 11 07 16.50 +31 29 50.0 19.1 V 703 – Catalina Sky Survey MPS 242027
2008 03 07.45803 11 07 16.10 +31 29 51.1 19.4 V 703 – Catalina Sky Survey MPS 242027
2008 03 13.21764 11 01 14.05 +31 35 04.9 19.3 V 703 – Catalina Sky Survey MPS 243524
2008 03 13.22477 11 01 13.62 +31 35 04.9 19.5 V 703 – Catalina Sky Survey MPS 243524
2008 03 13.23183 11 01 13.22 +31 35 05.4 19.3 V 703 – Catalina Sky Survey MPS 243524
2008 03 13.23890 11 01 12.79 +31 35 05.3 19.6 V 703 – Catalina Sky Survey MPS 243524
2008 03 24.36456 10 51 01.33 +31 14 41.7 18.9 V 703 – Catalina Sky Survey MPS 243990
2008 03 24.36679 10 51 01.22 +31 14 42.3 19.1 V 703 – Catalina Sky Survey MPS 243990
2008 03 24.37190 10 51 00.82 +31 14 40.9 19.7 V 703 – Catalina Sky Survey MPS 243990
2008 03 24.37412 10 51 00.86 +31 14 39.1 18.7 V 703 – Catalina Sky Survey MPS 243990
2008 03 24.37922 10 51 00.64 +31 14 39.4 20.0 V 703 – Catalina Sky Survey MPS 243990
2008 03 24.38147 10 51 00.57 +31 14 39.0 19.9 V 703 – Catalina Sky Survey MPS 243990
2008 03 24.38653 10 51 00.14 +31 14 36.0 20.1 V 703 – Catalina Sky Survey MPS 243990
2008 03 24.38880 10 51 00.25 +31 14 36.2 19.0 V 703 – Catalina Sky Survey MPS 243990
2008 04 01.29424 10 45 32.94 +30 38 11.2 17.6 V 703 – Catalina Sky Survey MPS 244613
2008 04 01.30237 10 45 32.76 +30 38 08.4 17.9 V 703 – Catalina Sky Survey MPS 244613
2008 04 01.31045 10 45 32.58 +30 38 06.4 18.1 V 703 – Catalina Sky Survey MPS 244613
2008 04 01.31855 10 45 32.40 +30 38 04.8 18.6 V 703 – Catalina Sky Survey MPS 244613
2010 09 29.29970 00 05 25.04 -22 44 30.0 19.4   704 – Lincoln Laboratory ETS, New Mexico MPS 349394
2010 09 29.31317 00 05 24.19 -22 44 31.0 19.7   704 – Lincoln Laboratory ETS, New Mexico MPS 349394
2010 09 29.32690 00 05 23.30 -22 44 32.6 19.7   704 – Lincoln Laboratory ETS, New Mexico MPS 349394
2010 09 29.34033 00 05 22.49 -22 44 31.3 19.5   704 – Lincoln Laboratory ETS, New Mexico MPS 349394
2010 09 29.35417 00 05 21.50 -22 44 33.0 19.5   704 – Lincoln Laboratory ETS, New Mexico MPS 349394
2010 10 09.397284 23 55 28.491 -22 35 18.46 19.95 g F51 – Pan-STARRS 1, Haleakala MPS 366832
2010 10 09.408832 23 55 27.842 -22 35 17.00 20.00 g F51 – Pan-STARRS 1, Haleakala MPS 366832
2010 10 12.406094 23 52 47.977 -22 26 34.74 19.29 r F51 – Pan-STARRS 1, Haleakala MPS 366832
2010 10 12.417164 23 52 47.379 -22 26 32.38 19.23 r F51 – Pan-STARRS 1, Haleakala MPS 366832
2010 10 14.24846 23 51 15.04 -22 19 54.7 19.8 V 703 – Catalina Sky Survey MPS 351099
2010 10 14.25478 23 51 14.83 -22 19 52.7 19.5 V 703 – Catalina Sky Survey MPS 351099
2010 10 14.26111 23 51 14.47 -22 19 53.3 19.1 V 703 – Catalina Sky Survey MPS 351099
2010 10 14.26737 23 51 14.29 -22 19 50.4 19.0 V 703 – Catalina Sky Survey MPS 351099
2010 11 04.14346 23 39 51.19 -20 01 54.4 18.9 V 703 – Catalina Sky Survey MPS 353702
